Seward, AK

6:19 PM AKDT on August 24, 2016 (GMT -0800)
Seward

Weather History for PAWD - July, 2014

Change the Weather History Date:

Tuesday, July 8, 2014

  Actual Average Record
Temperature  
Mean Temperature 56 °F -  
Max Temperature 64 °F 61 °F 82 °F (1975)
Min Temperature 48 °F 49 °F 42 °F (1978)
Degree Days  
Heating Degree Days 9    
Growing Degree Days 6 (Base 50)    
Moisture  
Dew Point 49 °F    
Average Humidity 79    
Maximum Humidity 93    
Minimum Humidity 63    
Precipitation  
Precipitation 0.00 in - - ()
Sea Level Pressure  
Sea Level Pressure 29.97 in    
Wind  
Wind Speed 5 mph (South)    
Max Wind Speed 15 mph    
Max Gust Speed -    
Visibility 10 miles    
Events      
Averages and records for this station are not official NWS values.
T = Trace of Precipitation, MM = Missing Value Source: NWS Daily Summary

Daily Weather History Graph

Daily Weather History Graph

Search for Another Location

Airport or City:

Trip Planner

Search our weather history database for the weather conditions in past years. The results will help you decide how hot, cold, wet, or windy it might be!

Date:

Astronomy

Jul. 08, 2014 Rise Set
Actual Time 4:48 AM AKDT 11:16 PM AKDT
Civil Twilight 3:18 AM AKDT 12:44 AM AKDT
Nautical Twilight Sun does not set Sun does not set
Astronomical Twilight Sun does not set Sun does not set
Moon 7:02 PM AKDT (7/8) 2:10 AM AKDT (7/8)
Length of Visible Light 21h 26m
Length of Day
18h 28m
Waxing Gibbous, 82% of the Moon is Illuminated
Jul 8
Waxing Gibbous
Jul 12
Full
Jul 18
Last Quarter
Jul 26
New
Aug 3
First Quarter

Hourly Weather History & Observations

Time (AKDT) Temp. Dew Point Humidity Pressure Visibility Wind Dir Wind Speed Gust Speed Precip Events Conditions
12:53 AM 48.9 °F 46.9 °F 93% 29.96 in 10.0 mi North 4.6 mph - N/A   Partly Cloudy
1:53 AM 48.9 °F 46.9 °F 93% 29.96 in 10.0 mi NNW 3.5 mph - N/A   Partly Cloudy
2:53 AM 48.9 °F 46.9 °F 93% 29.96 in 10.0 mi Calm Calm - N/A   Mostly Cloudy
3:53 AM 48.9 °F 46.0 °F 90% 29.94 in 10.0 mi NW 4.6 mph - N/A   Clear
4:53 AM 48.0 °F 46.0 °F 93% 29.94 in 10.0 mi Calm Calm - N/A   Scattered Clouds
5:53 AM 48.0 °F 45.0 °F 89% 29.94 in 10.0 mi NNW 3.5 mph - N/A   Clear
6:53 AM 48.9 °F 46.0 °F 90% 29.94 in 10.0 mi Calm Calm - N/A   Scattered Clouds
7:53 AM 54.0 °F 48.0 °F 80% 29.94 in 10.0 mi North 3.5 mph - N/A   Clear
8:53 AM 54.0 °F 50.0 °F 86% 29.94 in 10.0 mi SSE 4.6 mph - N/A   Clear
9:53 AM 55.9 °F 48.9 °F 77% 29.95 in 10.0 mi South 4.6 mph - N/A   Clear
10:53 AM 57.0 °F 50.0 °F 77% 29.95 in 10.0 mi South 5.8 mph - N/A   Partly Cloudy
11:53 AM 60.1 °F 51.1 °F 72% 29.96 in 10.0 mi SSE 5.8 mph - N/A   Clear
1:53 PM 62.1 °F 51.1 °F 67% 29.97 in 10.0 mi South 11.5 mph - N/A   Overcast
2:53 PM 64.0 °F 54.0 °F 70% 29.97 in 10.0 mi South 8.1 mph - N/A   Clear
3:53 PM 63.0 °F 52.0 °F 67% 29.97 in 10.0 mi South 12.7 mph - N/A   Clear
4:53 PM 64.0 °F 51.1 °F 63% 29.98 in 10.0 mi South 15.0 mph - N/A   Partly Cloudy
5:53 PM 64.0 °F 52.0 °F 65% 29.98 in 10.0 mi South 9.2 mph - N/A   Clear
6:53 PM 63.0 °F 52.0 °F 67% 29.98 in 10.0 mi SSW 13.8 mph - N/A   Clear
7:53 PM 61.0 °F 52.0 °F 72% 29.99 in 10.0 mi SSE 10.4 mph - N/A   Clear
8:53 PM 60.1 °F 50.0 °F 69% 29.99 in 10.0 mi South 13.8 mph - N/A   Partly Cloudy
10:53 PM 59.0 °F 51.1 °F 75% 30.02 in 10.0 mi SSE 8.1 mph - N/A   Overcast
11:53 PM 57.0 °F 52.0 °F 83% 30.04 in 10.0 mi SSE 5.8 mph - N/A   Partly Cloudy